EW4729 Weather Reports


Display with metric or nautical units.
time (UTC)temp
F
wind
direction
speed
MPH
gust
MPH
rain 1hr
in
rain 24hr
in
rain mn
in
humidity
%
barometer
mb
20260905181051 93 80 4.0 10.0 0.00 0.01 0.00 61 1013.8
20260905180551 93 59 1.0 5.0 0.00 0.01 0.00 61 1013.9
20260905180100 94 90 1.0 10.0 0.00 0.01 0.00 59 1014.1
20260905175553 94 0 1.0 10.0 0.00 0.01 0.00 60 1014.0
20260905175052 94 43 4.0 10.0 0.00 0.01 0.00 61 1013.9
20260905174604 93 261 4.0 8.0 0.00 0.01 0.00 62 1014.1
20260905174051 92 5 3.0 8.0 0.00 0.01 0.00 65 1014.1
20260905173552 92 29 4.0 8.0 0.00 0.01 0.00 65 1014.3
20260905173102 91 85 4.0 8.0 0.00 0.01 0.00 67 1014.3
20260905172555 91 61 3.0 7.0 0.00 0.01 0.00 68 1014.3
20260905172051 90 42 1.0 3.0 0.00 0.01 0.00 68 1014.5
20260905171635 90 279 1.0 6.0 0.00 0.01 0.00 68 1014.5
20260905171052 90 0 2.0 6.0 0.00 0.01 0.00 68 1014.6
20260905170552 90 288 1.0 6.0 0.00 0.01 0.00 72 1014.6
20260905170105 90 0 2.0 8.0 0.00 0.01 0.00 73 1014.8
20260905165551 90 253 2.0 12.0 0.00 0.01 0.00 74 1015.0
20260905165051 90 205 7.0 12.0 0.00 0.01 0.00 72 1015.1
20260905164605 91 213 3.0 8.0 0.00 0.01 0.00 70 1015.0
20260905164051 92 235 3.0 8.0 0.00 0.01 0.00 67 1015.0
20260905163551 92 233 2.0 9.0 0.00 0.01 0.00 67 1015.0
20260905163104 93 258 6.0 9.0 0.00 0.01 0.00 67 1015.0
20260905162554 93 225 5.0 9.0 0.00 0.01 0.00 68 1014.9
20260905162052 93 273 5.0 9.0 0.00 0.01 0.00 68 1014.9
20260905161558 93 0 2.0 5.0 0.00 0.01 0.00 69 1014.9
20260905161052 91 196 2.0 6.0 0.00 0.01 0.00 71 1014.8
20260905160551 90 301 3.0 6.0 0.00 0.01 0.00 71 1014.9
20260905160107 90 196 3.0 5.0 0.00 0.01 0.00 73 1014.8
20260905155552 89 255 1.0 4.0 0.00 0.01 0.00 73 1014.8
20260905155054 89 32 1.0 4.0 0.00 0.01 0.00 75 1014.9
20260905154641 89 0 1.0 4.0 0.00 0.01 0.00 75 1015.0
20260905154051 89 0 2.0 8.0 0.00 0.01 0.00 75 1015.0
20260905153551 89 205 0.0 9.0 0.00 0.01 0.00 76 1015.0
20260905153104 89 205 4.0 9.0 0.00 0.01 0.00 76 1015.0
20260905152551 89 234 3.0 8.0 0.00 0.01 0.00 78 1015.0
20260905152051 88 132 3.0 10.0 0.00 0.01 0.00 79 1015.0
20260905151601 88 203 4.0 11.0 0.00 0.01 0.00 79 1015.0
20260905151052 87 193 3.0 11.0 0.00 0.01 0.00 80 1015.0
20260905150552 87 0 4.0 7.0 0.00 0.01 0.00 80 1015.0
20260905150105 87 159 2.0 7.0 0.00 0.01 0.00 81 1015.0
20260905145553 86 243 3.0 7.0 0.00 0.01 0.00 83 1014.9
20260905145051 86 0 1.0 6.0 0.00 0.01 0.00 85 1015.0
20260905144610 85 155 2.0 6.0 0.00 0.01 0.00 87 1014.9
20260905144051 85 205 1.0 6.0 0.00 0.01 0.00 89 1015.0
20260905143551 84 0 0.0 0.0 0.00 0.01 0.00 90 1015.0
20260905143106 83 0 0.0 3.0 0.00 0.01 0.00 91 1014.9
20260905142552 83 0 0.0 4.0 0.00 0.01 0.00 92 1015.0
20260905142051 82 0 1.0 4.0 0.00 0.01 0.00 92 1015.1
20260905141557 82 112 1.0 6.0 0.00 0.01 0.00 93 1015.0
20260905141051 81 106 2.0 6.0 0.00 0.01 0.00 93 1015.1
20260905140552 81 125 1.0 6.0 0.00 0.01 0.00 94 1015.2
20260905140105 80 98 1.0 6.0 0.00 0.01 0.00 94 1015.3
20260905135551 80 0 0.0 0.0 0.00 0.01 0.00 94 1015.3
20260905135054 80 0 0.0 4.0 0.00 0.01 0.00 94 1015.1
20260905134608 79 0 0.0 4.0 0.00 0.01 0.00 94 1015.0
20260905134051 79 165 0.0 4.0 0.00 0.01 0.00 94 1015.0
20260905133554 78 168 0.0 2.0 0.00 0.01 0.00 94 1014.9
20260905133101 78 0 0.0 2.0 0.00 0.01 0.00 94 1014.9
20260905132552 77 0 0.0 1.0 0.00 0.01 0.00 94 1014.9
20260905132052 77 0 0.0 0.0 0.00 0.01 0.00 94 1014.9
20260905131605 76 0 0.0 0.0 0.00 0.01 0.00 94 1014.9
20260905131051 75 0 0.0 0.0 0.00 0.01 0.00 94 1014.7
20260905130557 75 0 0.0 0.0 0.00 0.01 0.00 93 1014.7
20260905125552 74 0 0.0 0.0 0.00 0.01 0.00 94 1014.7
20260905125052 74 0 0.0 0.0 0.00 0.01 0.00 93 1014.6
20260905124558 74 0 0.0 0.0 0.00 0.01 0.00 93 1014.6
20260905124052 74 0 0.0 0.0 0.00 0.01 0.00 93 1014.3
20260905123552 74 0 0.0 0.0 0.00 0.01 0.00 93 1014.3
20260905123104 74 0 0.0 0.0 0.00 0.01 0.00 93 1014.3
20260905122551 74 0 0.0 0.0 0.00 0.01 0.00 93 1014.3
20260905122051 74 0 0.0 0.0 0.00 0.01 0.00 93 1014.0
20260905121608 74 0 0.0 0.0 0.00 0.01 0.00 92 1013.9
20260905121051 74 0 0.0 0.0 0.00 0.01 0.00 93 1013.9
20260905120551 74 0 0.0 0.0 0.00 0.01 0.00 92 1013.8
20260905120059 74 0 0.0 0.0 0.00 0.01 0.00 92 1013.8
20260905115552 74 0 0.0 0.0 0.00 0.01 0.00 92 1013.8
20260905115052 74 0 0.0 0.0 0.00 0.01 0.00 92 1013.7
20260905114610 74 0 0.0 0.0 0.00 0.01 0.00 92 1013.7
20260905114051 74 0 0.0 0.0 0.00 0.01 0.00 92 1013.5
20260905113552 74 0 0.0 0.0 0.00 0.01 0.00 92 1013.6
20260905113101 74 0 0.0 0.0 0.00 0.01 0.00 92 1013.6
20260905112551 74 0 0.0 0.0 0.00 0.01 0.00 92 1013.6
20260905112052 74 0 0.0 0.0 0.00 0.01 0.00 92 1013.6
20260905111628 74 0 0.0 0.0 0.00 0.01 0.00 92 1013.6
20260905111055 74 0 0.0 0.0 0.00 0.01 0.00 92 1013.6
20260905110554 74 0 0.0 0.0 0.00 0.01 0.00 92 1013.6
20260905110107 74 0 0.0 0.0 0.00 0.01 0.00 92 1013.6
20260905105552 74 0 0.0 0.0 0.00 0.01 0.00 92 1013.6
20260905105055 74 0 0.0 0.0 0.00 0.01 0.00 92 1013.7
20260905104619 74 0 0.0 0.0 0.00 0.01 0.00 92 1013.6
20260905104052 74 0 0.0 0.0 0.00 0.01 0.00 92 1013.4
20260905103551 74 0 0.0 0.0 0.00 0.01 0.00 92 1013.4
20260905103104 74 0 0.0 0.0 0.00 0.01 0.00 92 1013.4
20260905102552 74 0 0.0 0.0 0.00 0.01 0.00 92 1013.4
20260905102051 74 0 0.0 0.0 0.00 0.01 0.00 92 1013.4
20260905101602 74 0 0.0 0.0 0.00 0.01 0.00 92 1013.4
20260905101054 75 0 0.0 0.0 0.00 0.01 0.00 92 1013.5
20260905100551 75 0 0.0 0.0 0.00 0.01 0.00 92 1013.4
20260905100105 75 0 0.0 0.0 0.00 0.01 0.00 92 1013.3
20260905095557 75 0 0.0 0.0 0.00 0.01 0.00 92 1013.3
20260905095051 75 0 0.0 0.0 0.00 0.01 0.00 92 1013.1
20260905094719 75 0 0.0 0.0 0.00 0.01 0.00 92 1013.2
20260905094051 75 0 0.0 0.0 0.00 0.01 0.00 92 1013.3
20260905093551 75 0 0.0 0.0 0.00 0.01 0.00 92 1013.2
20260905093126 76 0 0.0 0.0 0.00 0.01 0.00 92 1013.2
20260905092554 76 0 0.0 0.0 0.00 0.01 0.00 92 1013.1
20260905092051 76 0 0.0 0.0 0.00 0.01 0.00 92 1013.1
20260905091602 76 0 0.0 0.0 0.00 0.01 0.00 92 1013.2
20260905091055 76 0 0.0 0.0 0.00 0.01 0.00 92 1013.3
20260905090554 76 0 0.0 0.0 0.00 0.01 0.00 92 1013.2
20260905085555 76 0 0.0 1.0 0.00 0.01 0.00 92 1013.4
20260905085052 76 0 0.0 0.0 0.00 0.01 0.00 92 1013.2
20260905084608 76 0 0.0 0.0 0.00 0.01 0.00 91 1013.3
20260905084052 76 0 0.0 0.0 0.00 0.01 0.00 91 1013.3
20260905083552 76 0 0.0 0.0 0.00 0.01 0.00 91 1013.2
20260905083056 76 0 0.0 0.0 0.00 0.01 0.00 91 1013.2
20260905082551 76 0 0.0 0.0 0.00 0.01 0.00 91 1013.2
20260905082057 76 0 0.0 0.0 0.00 0.01 0.00 91 1013.2
20260905081557 76 0 0.0 0.0 0.00 0.01 0.00 90 1013.2
20260905081054 76 0 0.0 0.0 0.00 0.01 0.00 90 1013.2
20260905080557 76 0 0.0 0.0 0.00 0.01 0.00 90 1013.3
20260905080118 76 0 0.0 0.0 0.00 0.01 0.00 90 1013.2
20260905075551 77 0 0.0 0.0 0.00 0.01 0.00 90 1013.2
20260905075051 77 0 0.0 0.0 0.00 0.01 0.00 90 1013.2
20260905074606 77 0 0.0 0.0 0.00 0.01 0.00 90 1013.2
20260905074050 77 0 0.0 0.0 0.00 0.01 0.00 90 1013.2
20260905073551 77 0 0.0 0.0 0.00 0.01 0.00 90 1013.4
20260905073110 77 0 0.0 0.0 0.00 0.01 0.00 90 1013.5
20260905072555 77 0 0.0 0.0 0.00 0.01 0.00 90 1013.5
20260905072057 77 0 0.0 0.0 0.00 0.01 0.00 90 1013.6
20260905071556 77 0 0.0 0.0 0.00 0.01 0.00 90 1013.7
20260905071054 78 0 0.0 0.0 0.00 0.01 0.00 90 1013.7
20260905070554 78 0 0.0 0.0 0.00 0.01 0.00 90 1013.9
20260905070105 78 0 0.0 2.0 0.00 0.01 0.00 90 1013.7
20260905065553 78 0 0.0 2.0 0.00 0.01 0.00 90 1013.9
20260905065051 78 183 0.0 0.0 0.00 0.01 0.00 90 1013.9
20260905064600 78 0 0.0 0.0 0.00 0.01 0.00 89 1013.8
20260905064055 78 0 0.0 2.0 0.00 0.01 0.00 89 1013.7
20260905063553 78 0 0.0 2.0 0.00 0.01 0.00 89 1013.7
20260905063106 78 0 0.0 0.0 0.00 0.01 0.00 89 1013.9
20260905062552 78 0 0.0 0.0 0.00 0.01 0.00 89 1013.9
20260905062052 78 0 0.0 0.0 0.00 0.01 0.00 89 1014.0
20260905061605 78 0 0.0 0.0 0.00 0.01 0.00 89 1013.9
20260905061055 79 0 0.0 0.0 0.00 0.01 0.00 89 1014.0
20260905060552 79 0 0.0 0.0 0.00 0.01 0.00 89 1013.9
20260905060109 79 0 0.0 0.0 0.00 0.01 0.00 89 1013.7
20260905055554 79 0 0.0 0.0 0.00 0.01 0.00 89 1013.9
20260905055053 79 0 0.0 0.0 0.00 0.01 0.00 89 1013.9
20260905054607 79 0 0.0 0.0 0.00 0.01 0.00 89 1013.9
20260905054057 79 0 0.0 3.0 0.00 0.01 0.00 89 1014.1
20260905053555 79 0 0.0 3.0 0.00 0.01 0.00 89 1014.0
20260905053058 79 183 0.0 3.0 0.00 0.01 0.00 89 1013.9
20260905052552 80 0 1.0 3.0 0.00 0.01 0.00 89 1013.8
20260905052056 80 0 0.0 3.0 0.00 0.01 0.00 89 1013.9
20260905051610 80 0 0.0 3.0 0.00 0.01 0.00 89 1013.9
20260905051056 80 183 0.0 0.0 0.00 0.01 0.00 89 1013.9
20260905050553 80 0 0.0 1.0 0.00 0.01 0.00 89 1013.9
20260905050107 80 0 0.0 2.0 0.00 0.01 0.00 89 1013.9
20260905045553 80 0 0.0 4.0 0.00 0.01 0.01 89 1014.1
20260905045053 80 0 0.0 4.0 0.00 0.01 0.01 89 1014.1
20260905044604 80 180 1.0 4.0 0.00 0.01 0.01 89 1014.2
20260905044052 80 0 1.0 4.0 0.00 0.01 0.01 88 1014.2
20260905043554 80 188 1.0 5.0 0.00 0.01 0.01 88 1014.2
20260905043059 80 187 2.0 5.0 0.00 0.01 0.01 88 1014.1
20260905042555 80 180 2.0 5.0 0.00 0.01 0.01 88 1014.1
20260905042054 80 150 0.0 3.0 0.00 0.01 0.01 88 1014.3
20260905041610 80 0 1.0 5.0 0.00 0.01 0.01 88 1014.4
20260905041053 80 143 1.0 6.0 0.00 0.01 0.01 88 1014.3
20260905040553 80 0 1.0 6.0 0.00 0.01 0.01 88 1014.3
20260905040112 80 0 0.0 5.0 0.00 0.01 0.01 88 1014.2
20260905035554 80 0 1.0 5.0 0.00 0.01 0.01 88 1014.1
20260905035053 80 159 1.0 5.0 0.00 0.01 0.01 88 1014.1
20260905034607 80 136 0.0 5.0 0.00 0.01 0.01 88 1014.3
20260905034052 80 0 1.0 5.0 0.00 0.01 0.01 88 1014.3
20260905033553 80 162 1.0 5.0 0.00 0.01 0.01 88 1014.2
20260905033109 80 154 2.0 5.0 0.00 0.01 0.01 88 1014.2
20260905032555 79 153 1.0 5.0 0.00 0.01 0.01 87 1014.2
20260905032053 79 164 0.0 3.0 0.00 0.01 0.01 86 1014.1
20260905031616 79 0 0.0 2.0 0.00 0.01 0.01 86 1014.0
20260905031053 79 0 0.0 0.0 0.00 0.01 0.01 85 1014.1
20260905030553 79 0 0.0 0.0 0.00 0.01 0.01 84 1014.1
20260905030123 79 0 0.0 0.0 0.00 0.01 0.01 84 1014.1
20260905025555 79 0 0.0 0.0 0.00 0.01 0.01 84 1014.0
20260905025053 79 0 0.0 0.0 0.00 0.01 0.01 84 1013.9
20260905024617 80 0 0.0 0.0 0.00 0.01 0.01 84 1013.9
20260905024057 80 0 0.0 0.0 0.00 0.01 0.01 84 1013.9
20260905023556 80 0 0.0 0.0 0.00 0.01 0.01 84 1013.7
20260905023108 80 0 0.0 0.0 0.00 0.01 0.01 83 1013.7
20260905022555 80 0 0.0 0.0 0.00 0.01 0.01 83 1013.7
20260905022054 80 0 0.0 0.0 0.00 0.01 0.01 83 1013.7
20260905021615 80 0 0.0 0.0 0.00 0.01 0.01 83 1013.6
20260905021054 81 0 0.0 0.0 0.00 0.01 0.01 82 1013.5
20260905020554 81 0 0.0 0.0 0.00 0.01 0.01 82 1013.4
20260905020059 81 0 0.0 0.0 0.00 0.01 0.01 82 1013.5
20260905015553 82 0 0.0 0.0 0.00 0.01 0.01 81 1013.4
20260905015053 82 0 0.0 0.0 0.00 0.01 0.01 80 1013.3
20260905014557 82 0 0.0 0.0 0.00 0.01 0.01 79 1013.3
20260905014055 82 0 0.0 0.0 0.00 0.01 0.01 79 1013.1
20260905013553 83 0 0.0 0.0 0.00 0.01 0.01 79 1013.1
20260905013117 83 0 0.0 0.0 0.00 0.01 0.01 79 1013.0
20260905012554 84 0 0.0 0.0 0.00 0.01 0.01 78 1013.1
20260905012055 84 0 0.0 0.0 0.00 0.01 0.01 77 1013.2
20260905011613 84 0 0.0 0.0 0.00 0.01 0.01 77 1013.0
20260905011054 85 0 0.0 0.0 0.00 0.01 0.01 76 1013.0
20260905010554 85 0 0.0 0.0 0.00 0.01 0.01 76 1013.0
20260905010106 85 0 0.0 0.0 0.00 0.01 0.01 75 1013.0
20260905005551 86 0 0.0 0.0 0.00 0.01 0.01 75 1012.9
20260905005053 86 0 0.0 0.0 0.00 0.01 0.01 74 1012.8
20260905004600 86 0 0.0 0.0 0.00 0.01 0.01 74 1012.7
20260905004054 87 0 0.0 2.0 0.00 0.01 0.01 74 1012.6
20260905003554 87 0 0.0 4.0 0.00 0.01 0.01 74 1012.6
20260905003101 87 0 1.0 4.0 0.00 0.01 0.01 73 1012.5
20260905002554 87 0 0.0 5.0 0.00 0.01 0.01 73 1012.5
20260905002053 87 0 0.0 5.0 0.00 0.01 0.01 73 1012.6
20260905001602 87 165 2.0 5.0 0.00 0.01 0.01 73 1012.5
20260905001053 87 156 2.0 6.0 0.00 0.01 0.01 73 1012.5
20260905000556 87 129 2.0 6.0 0.00 0.01 0.01 73 1012.6
20260905000059 87 125 1.0 5.0 0.00 0.01 0.01 74 1012.5
20260904235554 87 0 2.0 5.0 0.00 0.01 0.01 74 1012.6
20260904235055 86 126 1.0 7.0 0.00 0.01 0.01 75 1012.5
20260904234558 86 113 2.0 7.0 0.00 0.01 0.01 75 1012.5
20260904234054 86 0 1.0 4.0 0.00 0.01 0.01 76 1012.5
20260904233552 86 126 1.0 8.0 0.00 0.01 0.01 76 1012.5
20260904233104 85 159 2.0 8.0 0.00 0.01 0.01 76 1012.6
20260904232616 85 154 1.0 8.0 0.00 0.01 0.01 76 1012.6
20260904232053 86 134 3.0 8.0 0.00 0.01 0.01 76 1012.7
20260904231602 86 109 3.0 8.0 0.00 0.01 0.01 76 1012.8
20260904231053 86 153 2.0 8.0 0.00 0.01 0.01 76 1012.7
20260904230555 86 180 1.0 9.0 0.00 0.01 0.01 76 1012.6
20260904230111 86 128 3.0 10.0 0.00 0.01 0.01 76 1012.6
20260904225553 86 163 2.0 11.0 0.00 0.01 0.01 77 1012.5
20260904225052 87 155 2.0 11.0 0.00 0.01 0.01 76 1012.5
20260904224615 87 165 5.0 12.0 0.00 0.01 0.01 75 1012.6
20260904224057 87 140 6.0 12.0 0.00 0.01 0.01 75 1012.7
20260904223557 88 156 5.0 10.0 0.00 0.01 0.01 75 1012.5
20260904223110 88 86 3.0 9.0 0.00 0.01 0.01 74 1012.4
20260904222552 88 138 2.0 9.0 0.00 0.01 0.01 77 1012.6
20260904222052 87 124 2.0 9.0 0.00 0.01 0.01 76 1012.7
20260904221628 87 134 3.0 8.0 0.00 0.01 0.01 77 1012.7
20260904221053 86 103 2.0 6.0 0.00 0.01 0.01 80 1012.9
20260904220552 86 119 2.0 8.0 0.00 0.01 0.01 81 1013.0
20260904215556 85 92 2.0 8.0 0.00 0.01 0.01 84 1013.0
20260904215056 85 96 2.0 7.0 0.01 0.01 0.01 85 1013.0
20260904214604 84 76 2.0 7.0 0.01 0.01 0.01 85 1013.1
20260904214052 84 109 2.0 5.0 0.01 0.01 0.01 86 1013.2
20260904213552 83 104 2.0 4.0 0.01 0.01 0.01 86 1013.2
20260904213104 83 0 1.0 4.0 0.01 0.01 0.01 86 1013.3
20260904212554 83 86 1.0 4.0 0.01 0.01 0.01 86 1013.4
20260904212056 83 88 1.0 4.0 0.01 0.01 0.01 86 1013.4
20260904211606 83 0 1.0 4.0 0.01 0.01 0.01 85 1013.3
20260904211053 83 101 1.0 4.0 0.01 0.01 0.01 84 1013.4
20260904210553 83 128 0.0 2.0 0.01 0.01 0.01 83 1013.4
20260904210120 83 128 0.0 0.0 0.01 0.01 0.01 83 1013.4
20260904205553 83 0 0.0 0.0 0.01 0.01 0.01 82 1013.5
20260904205052 83 0 0.0 3.0 0.00 0.00 0.00 80 1013.5
20260904204604 83 0 0.0 3.0 0.00 0.00 0.00 79 1013.5
20260904204056 83 128 1.0 5.0 0.00 0.00 0.00 78 1013.6
20260904203554 83 126 1.0 5.0 0.00 0.00 0.00 77 1013.7
20260904203058 83 158 1.0 6.0 0.00 0.00 0.00 76 1013.6
20260904202553 83 157 3.0 7.0 0.00 0.00 0.00 75 1013.7
20260904202052 83 150 2.0 9.0 0.00 0.00 0.00 74 1013.6
20260904201616 83 176 4.0 9.0 0.00 0.00 0.00 74 1013.6
20260904201052 83 175 3.0 9.0 0.00 0.00 0.00 73 1013.7
20260904200552 84 176 3.0 8.0 0.00 0.00 0.00 73 1013.7
20260904200119 84 173 3.0 13.0 0.00 0.00 0.00 73 1013.8
20260904195554 85 151 4.0 13.0 0.00 0.00 0.00 72 1014.0
20260904195053 85 156 6.0 13.0 0.00 0.00 0.00 71 1014.1
20260904194604 86 148 5.0 12.0 0.00 0.00 0.00 70 1014.2
20260904194052 87 129 3.0 14.0 0.00 0.00 0.00 70 1014.2
20260904193553 87 182 6.0 14.0 0.00 0.00 0.00 68 1014.5
20260904193100 88 142 8.0 14.0 0.00 0.00 0.00 66 1014.7
20260904192552 89 186 0.0 8.0 0.00 0.00 0.00 66 1014.3
20260904192052 89 90 2.0 8.0 0.00 0.00 0.00 67 1014.2
20260904191602 88 101 1.0 6.0 0.00 0.00 0.00 68 1014.2
20260904191052 88 88 1.0 5.0 0.00 0.00 0.00 70 1014.4
20260904190553 88 100 1.0 4.0 0.00 0.00 0.00 71 1014.4
20260904185555 88 0 2.0 4.0 0.00 0.00 0.00 73 1014.2
20260904185055 88 48 1.0 5.0 0.00 0.00 0.00 73 1014.2
20260904184605 89 27 1.0 5.0 0.00 0.00 0.00 72 1014.3
20260904184053 89 303 1.0 4.0 0.00 0.00 0.00 72 1014.5
20260904183553 88 30 0.0 3.0 0.00 0.00 0.00 72 1014.4
20260904183058 88 0 0.0 3.0 0.00 0.00 0.00 71 1014.6
20260904182552 88 268 0.0 6.0 0.00 0.00 0.00 71 1014.8
20260904182053 88 269 2.0 8.0 0.00 0.00 0.00 70 1014.7
20260904181604 88 269 3.0 8.0 0.00 0.00 0.00 69 1014.7